Terminal Aerodrome Forecast
Issued by NWS Sterling, VA

Current Version | Previous Version | Text Only | Print | Product List | Glossary Off
Versions: 1 2 3 4 5 6 7 8 9 10 11 12 13 14 15 16 17 18 19 20 21 22 23 24 25 26 27 28

000
FTUS41 KLWX 302115 AAB
TAFIAD
TAF AMD
KIAD 302115Z 3021/0124 18005KT 5SM BR OVC015
     FM010000 21011KT 3SM -SHRA OVC015
     FM010600 26009KT 6SM -SHRA BKN040
     FM010800 27009KT P6SM BKN120
     FM011500 28013G20KT P6SM SCT040
     FM012200 29012KT P6SM SCT250=

USA.gov is the U.S. government's official web portal to all federal, state and local government web resources and services.